Back to catalog

FENGYUN 1C DEB

AlivePO
NORAD 37056·DEBRIS·🇨🇳 China

Launched May 10, 1999 from Taiyuan Satellite Launch Center

Loading…

Next Passes (next 24 hours)

TLE

FreshSource: Space-Track

Epoch: Sep 14, 2026, 09:45 UTC

1 37056U 99025EEQ 26257.40648795  .00001356  00000-0  22480-3 0  9995
2 37056  98.9535 303.1851 0265638  36.1163 325.7651 14.51459569694099

Track FENGYUN 1C DEB in real time with AllMySat

Download on the App Store